Fort Yukon, AK

10:59 AM AKDT on March 30, 2017 (GMT -0800)
Fort Yukon

Weather History for PFYU - June, 2013

Change the Weather History Date:

Thursday, June 20, 2013

  Actual Average Record
Temperature  
Mean Temperature 73 °F -  
Max Temperature 87 °F 68 °F 87 °F (2013)
Min Temperature 59 °F 49 °F 44 °F (2001)
Cooling Degree Days 8    
Growing Degree Days 23 (Base 50)    
Moisture  
Dew Point 49 °F    
Average Humidity 43    
Maximum Humidity 72    
Minimum Humidity 14    
Precipitation  
Precipitation 0.00 in - - ()
Sea Level Pressure  
Sea Level Pressure 29.82 in    
Wind  
Wind Speed 1 mph (SSW)    
Max Wind Speed 6 mph    
Max Gust Speed -    
Visibility 10 miles    
Events      
Averages and records for this station are not official NWS values.
T = Trace of Precipitation, MM = Missing Value Source: NWS Daily Summary

Daily Weather History Graph

Daily Weather History Graph

Search for Another Location

Airport or City:

Trip Planner

Search our weather history database for the weather conditions in past years. The results will help you decide how hot, cold, wet, or windy it might be!

Date:

Astronomy

Jun. 20, 2013 Rise Set
Actual Time 2:15 AM AKDT 1:10 AM AKDT
Civil Twilight Sun does not rise Sun does not rise
Nautical Twilight Sun does not rise Sun does not rise
Astronomical Twilight Sun does not rise Sun does not rise
Moon 8:53 PM AKDT (6/20) 1:44 AM AKDT (6/20)
Length of Visible Light 24h 00m
Length of Day
22h 55m
Waxing Gibbous, 90% of the Moon is Illuminated
Jun 20
Waxing Gibbous
Jun 23
Full
Jun 29
Last Quarter
Jul 7
New
Jul 15
First Quarter

Hourly Weather History & Observations

Time (AKDT) Temp. Dew Point Humidity Pressure Visibility Wind Dir Wind Speed Gust Speed Precip Events Conditions
12:16 AM 69.8 °F 51.8 °F 53% 29.83 in 10.0 mi Calm Calm - N/A   Clear
12:36 AM 66.2 °F 51.8 °F 60% 29.84 in 10.0 mi Calm Calm - N/A   Clear
12:56 AM 66.2 °F 51.8 °F 60% 29.84 in 9.0 mi Calm Calm - N/A   Clear
1:16 AM 64.4 °F 48.2 °F 56% 29.84 in 10.0 mi Calm Calm - N/A   Clear
1:36 AM 64.4 °F 51.8 °F 64% 29.84 in 8.0 mi Calm Calm - N/A   Partly Cloudy
1:56 AM 62.6 °F 51.8 °F 68% 29.84 in 2.5 mi Calm Calm - N/A   Partly Cloudy
2:16 AM 62.6 °F 51.8 °F 68% 29.84 in 10.0 mi Calm Calm - N/A   Clear
2:36 AM 62.6 °F 51.8 °F 68% 29.84 in 10.0 mi Calm Calm - N/A   Clear
2:56 AM 62.6 °F 51.8 °F 68% 29.84 in 10.0 mi Calm Calm - N/A   Clear
3:16 AM 60.8 °F 51.8 °F 72% 29.83 in 7.0 mi Calm Calm - N/A   Partly Cloudy
3:36 AM 59.0 °F 50.0 °F 72% 29.83 in 10.0 mi Calm Calm - N/A   Partly Cloudy
3:56 AM 60.8 °F 51.8 °F 72% 29.83 in 10.0 mi Calm Calm - N/A   Clear
4:16 AM 60.8 °F 51.8 °F 72% 29.83 in 10.0 mi Calm Calm - N/A   Clear
4:36 AM 60.8 °F 50.0 °F 68% 29.83 in 10.0 mi Calm Calm - N/A   Partly Cloudy
4:56 AM 62.6 °F 50.0 °F 63% 29.83 in 10.0 mi Calm Calm - N/A   Clear
5:16 AM 62.6 °F 50.0 °F 63% 29.83 in 10.0 mi Calm Calm - N/A   Clear
5:36 AM 62.6 °F 50.0 °F 63% 29.83 in 10.0 mi Calm Calm - N/A   Clear
5:56 AM 62.6 °F 48.2 °F 59% 29.83 in 10.0 mi Calm Calm - N/A   Clear
6:16 AM 62.6 °F 50.0 °F 63% 29.83 in 10.0 mi Calm Calm - N/A   Clear
6:36 AM 62.6 °F 48.2 °F 59% 29.84 in 10.0 mi Calm Calm - N/A   Clear
6:56 AM 64.4 °F 48.2 °F 56% 29.84 in 10.0 mi Calm Calm - N/A   Clear
7:16 AM 66.2 °F 48.2 °F 52% 29.84 in 10.0 mi Calm Calm - N/A   Clear
7:36 AM 69.8 °F 50.0 °F 49% 29.84 in 10.0 mi Calm Calm - N/A   Clear
7:56 AM 69.8 °F 50.0 °F 49% 29.84 in 10.0 mi Calm Calm - N/A   Clear
8:16 AM 69.8 °F 51.8 °F 53% 29.85 in 10.0 mi Calm Calm - N/A   Clear
8:36 AM 69.8 °F 51.8 °F 53% 29.85 in 10.0 mi Calm Calm - N/A   Clear
8:56 AM 71.6 °F 51.8 °F 50% 29.85 in 10.0 mi Calm Calm - N/A   Clear
9:16 AM 71.6 °F 51.8 °F 50% 29.85 in 10.0 mi Calm Calm - N/A   Clear
9:36 AM 73.4 °F 51.8 °F 47% 29.85 in 10.0 mi Calm Calm - N/A   Clear
9:56 AM 75.2 °F 51.8 °F 44% 29.85 in 10.0 mi Calm Calm - N/A   Clear
10:16 AM 75.2 °F 51.8 °F 44% 29.85 in 10.0 mi Calm Calm - N/A   Clear
10:36 AM 77.0 °F 50.0 °F 39% 29.85 in 10.0 mi Calm Calm - N/A   Clear
10:56 AM 78.8 °F 50.0 °F 36% 29.84 in 10.0 mi Calm Calm - N/A   Clear
11:16 AM 78.8 °F 51.8 °F 39% 29.84 in 10.0 mi Calm Calm - N/A   Clear
11:36 AM 80.6 °F 51.8 °F 37% 29.84 in 10.0 mi SSW 4.6 mph - N/A   Clear
11:56 AM 80.6 °F 50.0 °F 34% 29.84 in 10.0 mi WSW 3.5 mph - N/A   Clear
12:16 PM 82.4 °F 50.0 °F 32% 29.84 in 10.0 mi South 4.6 mph - N/A   Clear
12:36 PM 82.4 °F 48.2 °F 30% 29.84 in 10.0 mi WSW 3.5 mph - N/A   Clear
12:56 PM 82.4 °F 48.2 °F 30% 29.84 in 10.0 mi South 3.5 mph - N/A   Clear
1:16 PM 82.4 °F 48.2 °F 30% 29.83 in 10.0 mi Calm Calm - N/A   Clear
1:36 PM 84.2 °F 46.4 °F 27% 29.83 in 10.0 mi SSW 5.8 mph - N/A   Clear
1:56 PM 84.2 °F 46.4 °F 27% 29.83 in 10.0 mi South 3.5 mph - N/A   Clear
2:16 PM 84.2 °F 44.6 °F 25% 29.82 in 10.0 mi Calm Calm - N/A   Clear
2:36 PM 84.2 °F 44.6 °F 25% 29.82 in 10.0 mi Calm Calm - N/A   Clear
2:56 PM 86.0 °F 44.6 °F 23% 29.82 in 10.0 mi South 3.5 mph - N/A   Clear
3:16 PM 86.0 °F 44.6 °F 23% 29.81 in 10.0 mi South 4.6 mph - N/A   Clear
3:36 PM 87.8 °F 44.6 °F 22% 29.81 in 10.0 mi SE 3.5 mph - N/A   Clear
3:56 PM 86.0 °F 44.6 °F 23% 29.81 in 10.0 mi Calm Calm - N/A   Clear
4:16 PM 84.2 °F 42.8 °F 23% 29.80 in 10.0 mi West 4.6 mph - N/A   Clear
4:36 PM 86.0 °F 44.6 °F 23% 29.80 in 10.0 mi WSW 3.5 mph - N/A   Clear
4:56 PM 86.0 °F 42.8 °F 22% 29.79 in 10.0 mi Calm Calm - N/A   Clear
5:16 PM 87.8 °F 42.8 °F 21% 29.79 in 10.0 mi SSW 4.6 mph - N/A   Clear
5:36 PM 86.0 °F 42.8 °F 22% 29.78 in 10.0 mi Calm Calm - N/A   Clear
5:56 PM 84.2 °F 42.8 °F 23% 29.78 in 10.0 mi Calm Calm - N/A   Clear
6:16 PM 84.2 °F 42.8 °F 23% 29.78 in 10.0 mi Calm Calm - N/A   Clear
6:36 PM 84.2 °F 42.8 °F 23% 29.78 in 10.0 mi Calm Calm - N/A   Partly Cloudy
6:56 PM 84.2 °F 44.6 °F 25% 29.78 in 10.0 mi South 3.5 mph - N/A   Mostly Cloudy
7:16 PM 82.4 °F 48.2 °F 30% 29.78 in 10.0 mi Calm Calm - N/A   Mostly Cloudy
7:36 PM 82.4 °F 48.2 °F 30% 29.78 in 10.0 mi Calm Calm - N/A   Overcast
7:56 PM 78.8 °F 51.8 °F 39% 29.78 in 10.0 mi Calm Calm - N/A   Scattered Clouds
8:16 PM 77.0 °F 48.2 °F 36% 29.78 in 10.0 mi Calm Calm - N/A   Scattered Clouds
8:36 PM 75.2 °F 51.8 °F 44% 29.77 in 10.0 mi Calm Calm - N/A   Scattered Clouds
8:56 PM 75.2 °F 50.0 °F 41% 29.77 in 10.0 mi Calm Calm - N/A   Scattered Clouds
9:16 PM 75.2 °F 51.8 °F 44% 29.78 in 10.0 mi Calm Calm - N/A   Clear
9:36 PM 77.0 °F 48.2 °F 36% 29.78 in 10.0 mi SE 5.8 mph - N/A   Mostly Cloudy
9:56 PM 78.8 °F 46.4 °F 32% 29.79 in 10.0 mi Calm Calm - N/A   Overcast
10:16 PM 75.2 °F 48.2 °F 38% 29.79 in 10.0 mi Calm Calm - N/A   Scattered Clouds
10:36 PM 73.4 °F 48.2 °F 41% 29.79 in 10.0 mi Calm Calm - N/A   Mostly Cloudy
10:56 PM 71.6 °F 48.2 °F 43% 29.79 in 10.0 mi Calm Calm - N/A   Overcast
11:16 PM 69.8 °F 48.2 °F 46% 29.79 in 10.0 mi Calm Calm - N/A   Overcast
11:36 PM 69.8 °F 50.0 °F 49% 29.79 in 10.0 mi Calm Calm - N/A   Overcast
11:56 PM 69.8 °F 50.0 °F 49% 29.79 in 10.0 mi Calm Calm - N/A   Overcast